EA3E-1 Weather Reports


Display with metric or nautical units.
time (UTC)temp
F
wind
direction
speed
MPH
gust
MPH
rain 1hr
in
rain 24hr
in
rain mn
in
humidity
%
barometer
mb
20260505021623 57 1 3.0 4.0 0.00 0.15 0.08 69 1010.9
20260505020723 56 1 2.0 4.0 0.00 0.15 0.08 69 1010.9
20260505015823 57 1 2.0 4.0 0.00 0.15 0.08 68 1010.9
20260505014923 57 1 3.0 3.0 0.00 0.15 0.08 68 1010.8
20260505014023 57 1 3.0 6.0 0.00 0.15 0.08 69 1010.8
20260505013123 57 1 2.0 4.0 0.00 0.15 0.08 70 1010.8
20260505012223 57 1 2.0 5.0 0.00 0.15 0.08 71 1010.8
20260505011323 57 1 3.0 5.0 0.00 0.15 0.08 71 1011.0
20260505010423 57 1 3.0 5.0 0.00 0.15 0.08 72 1010.9
20260505005523 58 1 1.0 4.0 0.00 0.15 0.08 73 1010.9
20260505004623 58 1 2.0 4.0 0.00 0.15 0.08 72 1011.0
20260505003723 58 1 2.0 4.0 0.00 0.15 0.08 71 1011.1
20260505002823 58 1 3.0 4.0 0.00 0.15 0.08 71 1011.1
20260505001923 58 1 4.0 6.0 0.00 0.15 0.08 69 1011.1
20260505001023 57 1 4.0 7.0 0.00 0.15 0.08 67 1011.1
20260505000123 57 1 3.0 10.0 0.00 0.15 0.08 67 1011.2
20260504235223 57 1 2.0 4.0 0.00 0.15 0.08 66 1011.2
20260504234323 57 1 3.0 5.0 0.00 0.15 0.08 66 1011.1
20260504233423 57 1 3.0 5.0 0.00 0.15 0.08 66 1011.0
20260504232523 57 1 3.0 6.0 0.00 0.15 0.08 67 1010.9
20260504231623 57 1 4.0 6.0 0.00 0.15 0.08 67 1010.8
20260504225823 57 1 4.0 8.0 0.08 0.15 0.08 65 1010.7
20260504224923 57 1 4.0 8.0 0.09 0.15 0.08 66 1010.5
20260504224023 57 1 5.0 8.0 0.09 0.15 0.08 67 1010.4
20260504223123 57 1 5.0 8.0 0.09 0.15 0.08 68 1010.4
20260504221323 58 1 6.0 14.0 0.07 0.13 0.07 69 1010.6
20260504220423 60 1 3.0 12.0 0.01 0.07 0.01 67 1011.0
20260504215523 61 1 1.0 5.0 0.01 0.07 0.07 63 1011.0
20260504213723 63 1 3.0 5.0 0.00 0.06 0.06 60 1011.0
20260504212822 63 1 3.0 5.0 0.00 0.06 0.06 61 1011.1
20260504211022 63 1 1.0 4.0 0.00 0.06 0.06 61 1011.2
20260504210122 63 1 0.0 3.0 0.00 0.06 0.06 61 1011.0
20260504205222 63 0 0.0 0.0 0.00 0.06 0.06 61 1011.0
20260504204323 63 0 0.0 0.0 0.00 0.06 0.06 61 1010.9
20260504203422 64 0 0.0 0.0 0.00 0.06 0.06 61 1010.8
20260504202522 63 0 0.0 0.0 0.00 0.06 0.06 62 1010.7
20260504201622 63 0 1.0 0.0 0.00 0.06 0.06 62 1010.7
20260504200722 63 1 2.0 4.0 0.00 0.06 0.06 62 1010.6
20260504195822 63 1 1.0 4.0 0.00 0.06 0.06 63 1010.6
20260504194922 63 1 1.0 3.0 0.00 0.06 0.06 62 1010.5
20260504194022 63 1 2.0 5.0 0.00 0.06 0.06 63 1010.4
20260504193122 63 1 3.0 5.0 0.00 0.06 0.06 63 1010.1
20260504192222 64 1 4.0 6.0 0.00 0.06 0.06 63 1009.9
20260504190422 64 1 3.0 6.0 0.00 0.06 0.06 63 1009.5
20260504185522 64 1 3.0 6.0 0.00 0.06 0.06 63 1009.4
20260504182822 64 1 4.0 8.0 0.00 0.06 0.06 61 1009.2
20260504181022 64 1 5.0 11.0 0.00 0.06 0.06 61 1009.3
20260504175222 64 1 4.0 9.0 0.00 0.06 0.06 60 1009.3
20260504173422 65 1 3.0 7.0 0.01 0.06 0.06 61 1009.3
20260504172522 65 1 4.0 9.0 0.01 0.06 0.06 61 1009.4
20260504171622 65 1 4.0 8.0 0.02 0.06 0.06 61 1009.4
20260504170722 64 1 4.0 9.0 0.05 0.06 0.06 61 1009.5
20260504151022 67 1 9.0 20.0 0.00 0.00 0.00 74 1009.8
20260504140721 70 1 9.0 16.0 0.00 0.00 0.00 70 1009.6
20260504120121 69 1 7.0 12.0 0.00 0.00 0.00 75 1010.9
20260504110721 69 1 6.0 15.0 0.00 0.00 0.00 72 1011.2
20260504100421 70 1 6.0 14.0 0.00 0.00 0.00 70 1011.2
20260504090121 70 1 3.0 6.0 0.00 0.00 0.00 64 1010.8
20260504081620 68 1 7.0 13.0 0.00 0.00 0.00 70 1010.9
20260504080720 68 1 8.0 12.0 0.00 0.00 0.00 71 1011.0
20260504050720 58 1 4.0 7.0 0.00 0.00 0.00 70 1011.5
20260504045820 58 1 4.0 6.0 0.00 0.00 0.00 71 1011.6
20260504044920 59 1 3.0 8.0 0.00 0.00 0.00 70 1011.6
20260504044020 59 1 3.0 8.0 0.00 0.00 0.00 69 1011.6
20260504043120 59 1 3.0 6.0 0.00 0.00 0.00 69 1011.6
20260504042220 59 1 4.0 6.0 0.00 0.00 0.00 70 1011.7
20260504041320 59 1 4.0 8.0 0.00 0.00 0.00 70 1011.8
20260504040420 59 1 4.0 7.0 0.00 0.00 0.00 70 1011.9
20260504035520 59 1 3.0 5.0 0.00 0.00 0.00 70 1011.9
20260504033720 59 1 3.0 5.0 0.00 0.00 0.00 71 1012.1
20260504032820 59 1 2.0 4.0 0.00 0.00 0.00 71 1012.1
20260504031920 59 1 2.0 4.0 0.00 0.00 0.00 72 1012.3
20260504031020 59 1 2.0 4.0 0.00 0.00 0.00 72 1012.4
20260504030120 60 1 2.0 3.0 0.00 0.00 0.00 72 1012.3
20260504025220 60 1 1.0 4.0 0.00 0.00 0.00 72 1012.3
20260504024320 60 1 2.0 4.0 0.00 0.00 0.00 72 1012.4
20260504023419 60 1 1.0 5.0 0.00 0.00 0.00 73 1012.4
20260504022519 60 1 2.0 4.0 0.00 0.00 0.00 73 1012.5